Regional Weather Roundup
Issued by NWS Green Bay, WI

Home | Current Version | Previous Version | Text Only | Print | Product List | Glossary On
Versions: 1 2 3 4 5 6 7 8 9 10 11 12 13 14 15 16 17 18 19 20 21 22 23 24 25 26 27 28 29 30 31 32 33 34 35 36 37 38 39 40 41 42 43 44 45 46 47 48 49 50
000
ASUS43 KGRB 201159
RWRGRB

NORTH-CENTRAL AND NORTHEAST WISCONSIN REGIONAL WEATHER ROUNDUP
NATIONAL WEATHER SERVICE GREEN BAY WI
600 AM CST SAT DEC 20 2014

WIZ005-009-010>012-018-019-201300-
NORTH CENTRAL WISCONSIN

CITY           SKY/WX    TMP DP  RH WIND       PRES   REMARKS
IRONWOOD       CLOUDY    25  23  93 S3        30.15S
MANITOWISH WTR NOT AVBL
ARBOR VITAE    NOT AVBL
EAGLE RIVER    NOT AVBL
LAND O LAKES   NOT AVBL
RHINELANDER    CLOUDY    22  20  92 CALM      30.18S FOG
PHILLIPS       NOT AVBL
ANTIGO         NOT AVBL
TOMAHAWK       NOT AVBL
MERRILL        NOT AVBL
$$

WIZ013-073-201300-
NORTHEAST WISCONSIN

CITY           SKY/WX    TMP DP  RH WIND       PRES   REMARKS
IRON MOUNTAIN  CLOUDY    15  12  88 CALM      30.21S
MARINETTE      MOCLDY    14  12  92 CALM      30.26F
$$

WIZ017-030-035>037-045-201300-
CENTRAL WISCONSIN

CITY           SKY/WX    TMP DP  RH WIND       PRES   REMARKS
MEDFORD        NOT AVBL
WAUSAU         CLOUDY    24  21  88 S5        30.20F FOG
MOSINEE        CLOUDY    23  23 100 S6        30.22F FOG
MARSHFIELD     CLOUDY    25  22  88 S7        30.20F
WISC RAPIDS    CLOUDY    24  21  88 SE3       30.25S FOG
STEVENS POINT  NOT AVBL
WAUPACA        NOT AVBL
SHAWANO        NOT AVBL
CLINTONVILLE   NOT AVBL
$$

WIZ038-039-048-051-201300-
FOX VALLEY

CITY           SKY/WX    TMP DP  RH WIND       PRES   REMARKS
NWS GREEN BAY  MOCLDY    21  19  92 CALM      30.27F
APPLETON       MOCLDY    23  21  93 CALM      30.26S
OSHKOSH        CLOUDY    24  20  84 CALM      30.26S
FOND DU LAC    CLOUDY    23  19  85 CALM      30.26S
$$

WIZ022-050-052-201300-
EAST CENTRAL WISCONSIN

CITY           SKY/WX    TMP DP  RH WIND       PRES   REMARKS
STURGEON BAY   CLOUDY    25  19  80 W3        30.28S
MANITOWOC      NOT AVBL
SHEBOYGAN      CLOUDY    26  20  77 NW3       30.26S
$$

LMZ563-521-522-541>543-201300-
LAKESHORE

STATION/POSITION TIME  TEMP    WIND        PRES    VSBY  WAVE
                       AIR SEA DIR/SP/G                  HT/PER
                 (UTC) (F)     (DEG/KT/KT) (MB)    (MI)  (FT/S)
SHEBOYGAN LKSHOR 1100   28 34  310/  5/  6 1026.0F
KEWAUNEE LKSHORE 1100   26     310/  5/  9 1024.1R
NORTHPORT PIER   1100   23      CALM  /  2 1025.4R
CHAMBERS ISLAND  1100   18        CALM     1025.4R
MENOMINEE LKSHOR 1100   21     210/  1/  2 1025.6S
$$


USA.gov is the U.S. government's official web portal to all federal, state and local government web resources and services.